Location: Dover
(39.1580°N, 75.5250°W)
Time: 00:09:33
(UTC-04:00)

Daily predictions for brighter satellites

Satellite Brightness Start Highest point End
(mag) Time Altitude Azimuth Time Altitude Azimuth Time Altitude Azimuth
Cosmos 1943 Rocket 4.4 03:42:23 20° ENE 03:42:23 20° ENE 03:45:01 10° NE
ADEOS II 3.8 04:02:19 10° NNE 04:05:19 29° NE 04:05:19 29° NE
Cosmos 2369 Rocket 3.5 04:16:04 35° NNE 04:16:04 35° NNE 04:19:14 10° NNE
Okean O Rocket 3.7 04:20:16 10° NE 04:23:52 24° E 04:24:03 24° E
USA 267 3.9 04:18:29 10° SE 04:22:40 43° SSE 04:22:40 43° SSE
Cosmos 1898 Rocket 4.0 04:40:08 55° NE 04:40:08 55° NE 04:44:22 10° NNE
OAO 2 Rocket 4.4 04:43:44 38° SE 04:43:44 38° SE 04:47:12 10° E
Lacrosse 5 3.6 04:46:17 22° N 04:46:17 22° N 04:48:43 10° NNE
Cosmos 1937 Rocket 4.1 04:43:34 48° SE 04:44:24 53° ESE 04:49:35 10° NNE
Cosmos 1733 4.4 04:55:38 10° N 04:59:20 41° E 05:02:59 10° SSE
Cosmos 2184 Rocket 3.8 04:53:04 10° N 04:59:21 82° W 05:05:33 10° S
Cosmos 2298 Rocket 4.0 05:03:56 55° S 05:05:09 83° ESE 05:10:31 10° NNE
Milstar 3 3.6 05:05:11 32° SSW 05:06:33 35° S 05:13:21 10° ESE
Cosmos 1242 Rocket 3.9 05:03:55 10° N 05:07:27 40° ENE 05:10:56 10° SSE
Cosmos 990 Rocket 3.9 05:08:46 47° S 05:10:19 84° ESE 05:15:31 10° NNE
Cosmos 1656 Rocket 4.2 05:06:33 14° S 05:11:18 59° ESE 05:16:53 10° NNE
CZ-4B R/B 3.4 05:10:03 10° NNE 05:15:29 73° ESE 05:21:01 10° S
Tiangong 2 2.6 05:18:05 35° NE 05:18:05 35° NE 05:20:22 10° E
GPS 2-04 Rocket1 3.3 05:19:34 44° SSE 05:19:34 44° SSE 05:22:33 10° ESE
Cosmos 1943 Rocket 2.3 05:23:57 46° WNW 05:24:12 46° WNW 05:29:33 10° NNE
CZ-4C R/B 2.9 05:18:02 10° NNW 05:25:21 88° ENE 05:33:25 10° SSE
Cosmos 44 3.1 05:23:37 33° NNW 05:25:44 85° ENE 05:30:34 10° SSE
Cosmos 1953 Rocket 3.4 05:30:29 10° S 05:34:49 90° W 05:39:10 10° N
Meteor 1-28 Rocket 4.4 05:33:15 10° SE 05:36:52 43° ENE 05:40:29 10° N
APEX 3.9 05:33:59 15° NNW 05:36:53 57° ENE 05:41:17 10° SE
Cosmos 1825 Rocket 3.5 05:35:39 33° SW 05:37:22 58° W 05:41:45 10° N
Cosmos 44 Rocket 3.1 05:35:12 23° NW 05:38:12 77° WSW 05:43:07 10° SSE
Nadezhda 1 Rocket 4.2 05:33:41 10° SSW 05:39:50 49° WNW 05:46:01 10° N
Cosmos 2074 Rocket 4.4 05:34:45 10° NNW 05:40:24 36° W 05:46:03 10° SSW
CZ-2C R/B 3.9 05:38:01 10° SSE 05:42:47 80° ENE 05:47:32 10° N
SJ 16-02 3.2 05:39:06 10° SSE 05:43:02 33° E 05:46:58 10° NE
ADEOS II 3.2 05:42:33 10° NNW 05:46:15 24° WNW 05:46:15 24° WNW
Cosmos 1470 2.8 05:43:16 10° NNW 05:47:05 51° W 05:50:51 10° S
SJ-6F 4.4 05:43:03 10° NNE 05:47:09 84° ESE 05:51:13 10° S
Meteor PRIRODA 3.7 05:45:12 10° N 05:48:53 57° WNW 05:51:51 15° SSW
Cosmos 1340 Rocket 3.4 05:51:46 34° W 05:51:57 34° WNW 05:55:42 10° N
NOSS 3-1 (C) 3.3 05:49:12 10° SSW 05:54:49 85° ESE 06:01:11 10° NE
USA 229 DEB 3.9 05:50:33 21° WSW 05:55:03 52° NW 06:01:48 10° NNE
USA 229 3.9 05:50:36 21° WSW 05:55:08 52° NW 06:01:54 10° NNE
Shenzhou-11 Module 1.9 05:55:35 46° WNW 05:56:22 81° SSW 05:59:25 10° ESE
Cosmos 2369 Rocket 3.7 05:57:54 17° NW 05:58:12 17° NW 06:01:48 10° NNW
Meteor 1-31 Rocket 2.8 05:55:07 10° N 05:58:49 50° WNW 06:02:29 10° SSW
NOSS 3-1 (A) 3.8 05:53:39 10° SSW 05:59:14 65° ESE 06:05:29 10° NE
Okean O Rocket 2.5 05:56:26 10° N 06:00:11 28° WNW 06:01:30 24° W
IDEFIX/ARIANE 42P 4.1 05:58:25 10° NNE 06:03:20 40° E 06:08:12 10° SSE
IRS-1C Rocket 4.3 05:58:54 10° N 06:03:56 46° WNW 06:08:55 10° SW
Cosmos 2154 Rocket 4.3 06:02:26 10° NNW 06:08:20 42° W 06:14:11 10° SSW
Cosmos 1356 4.4 06:05:36 10° S 06:08:57 50° E 06:12:21 10° NNE
Molniya-1 2.2 06:09:11 61° WSW 06:09:12 61° SW 06:11:11 10° SSE
USA 116 3.5 06:06:45 10° S 06:10:04 55° W 06:13:47 10° NNW
Okean-O 2.7 06:05:42 10° NNE 06:10:09 85° ESE 06:14:35 10° SSW
Cosmos 2366 rocket 4.5 06:04:09 10° N 06:10:15 65° E 06:16:22 10° SSE
Meteor 2-5 Rocket 3.8 06:04:55 10° SSW 06:10:48 68° W 06:16:40 10° N
Cosmos 1707 3.6 06:11:06 10° SW 06:14:29 28° WNW 06:17:56 10° NNW
DELTA 2 R/B(2) 3.8 06:14:13 27° W 06:15:22 75° N 06:19:08 10° E
Cosmos 2219 3.2 06:17:09 10° NNW 06:22:52 90° WSW 06:28:29 10° SSE
Cosmos 1356 Rocket 3.8 06:20:16 10° SSW 06:24:18 42° WNW 06:28:24 10° N
SL-8 Rocket 4.0 06:18:57 10° NNW 06:25:15 72° W 06:31:31 10° S
OAO 2 Rocket 3.8 06:22:42 13° W 06:26:55 51° S 06:31:41 10° ESE
NOAA 6 4.0 06:23:06 10° N 06:28:15 68° WNW 06:33:22 10° SSW
Lacrosse 5 4.1 06:27:24 10° NNW 06:28:55 11° NNW 06:30:26 10° N
Cosmos 372 Rocket 4.0 06:26:21 10° SSW 06:31:31 69° WNW 06:36:46 10° NNE
Cosmos 1125 Rocket 3.5 06:26:52 10° SSW 06:32:02 62° WNW 06:37:17 10° NNE
Cosmos-2242 3.6 06:29:31 10° NNW 06:33:26 35° W 06:37:20 10° SSW
EO 1 Del DPAF 3.6 06:30:55 10° S 06:34:32 41° W 06:38:11 10° NNW
PAYLOAD A 3.8 06:31:07 10° NNE 06:35:50 89° WNW 06:40:38 10° SSW
COSMO-SKYMED 1 2.6 06:32:45 10° S 06:37:01 59° W 06:41:19 10° NNW
Cosmos 2297 Rocket 3.8 06:32:51 10° N 06:38:05 37° ENE 06:43:17 10° SE
Cosmos 864 Rocket 4.5 06:36:40 10° N 06:42:52 74° W 06:48:59 10° S
CZ-2C R/B 4.1 06:40:46 10° N 06:44:56 81° W 07:01:01 10° S
Cosmos 2218 Rocket 4.1 06:39:50 10° NNW 06:45:55 58° W 06:52:04 10° S
CZ-3 R/B 4.0 06:52:23 10° W 07:05:45 22° SW 07:11:32 10° S
